Simultaneous Nadir Overpasses (SNOs) Predictions

Prediction of SNOs between METOP-A and TERRA Satellite Orbit:

Table of predicted SNOs for the next 14.0 days since TLE Epoch: 6/6/2020
Index Date (METOP-A) Time (METOP-A) Lat,Lon (METOP-A) SZA (METOP-A ) Date (TERRA) Time (TERRA) Lat,Lon (TERRA) SZA (TERRA ) Distance(km) Time Diff (sec)
1 06/07/2020 00:34:45 81.42,-139.64 61.78 06/07/2020 00:35:59 81.40,-139.79 61.78 3.82 74
2 06/07/2020 01:25:25 -81.42, 27.99 118.20 06/07/2020 01:25:25 -81.41, 28.10 118.19 1.99 0
3 06/07/2020 02:16:05 81.41,-164.36 61.84 06/07/2020 02:14:52 81.40,-164.48 61.78 2.24 73
4 06/09/2020 20:09:06 81.41, -72.94 61.55 06/09/2020 20:10:14 81.42, -72.83 61.61 1.99 68
5 06/09/2020 20:59:46 -81.41, 94.71 118.42 06/09/2020 20:59:41 -81.42, 94.72 118.42 1.28 5
6 06/12/2020 15:43:27 81.42, -6.65 61.34 06/12/2020 15:44:31 81.41, -6.67 61.36 0.71 64
7 06/12/2020 16:34:07 -81.41, 161.01 118.63 06/12/2020 16:33:58 -81.41, 160.92 118.65 1.53 9
8 06/15/2020 11:17:48 81.41, 60.02 61.22 06/15/2020 11:18:49 81.42, 59.87 61.23 2.65 61
9 06/15/2020 12:08:29 -81.41,-132.70 118.80 06/15/2020 12:08:16 -81.41,-132.51 118.78 3.18 13
10 06/18/2020 06:52:10 81.41, 126.28 61.10 06/18/2020 06:53:08 81.42, 126.38 61.15 1.96 58




NCC Satellite Simultaneous Nadir Overpasses (SNOs) Prediction Service
